Rockland, ME

7:36 PM EDT on March 24, 2017 (GMT -0400)
Knox County Regional

Weather History for KRKD - April, 2014

Change the Weather History Date:

Wednesday, April 16, 2014

  Actual Average Record
Temperature  
Mean Temperature 39 °F -  
Max Temperature 50 °F 48 °F 64 °F (2003)
Min Temperature 28 °F 32 °F 24 °F (2005)
Degree Days  
Heating Degree Days 26    
Moisture  
Dew Point 21 °F    
Average Humidity 62    
Maximum Humidity 94    
Minimum Humidity 35    
Precipitation  
Precipitation 0.28 in - - ()
Sea Level Pressure  
Sea Level Pressure 30.15 in    
Wind  
Wind Speed 11 mph (NW)    
Max Wind Speed 17 mph    
Max Gust Speed 30 mph    
Visibility 9 miles    
Events      
Averages and records for this station are not official NWS values.
T = Trace of Precipitation, MM = Missing Value Source: NWS Daily Summary

Daily Weather History Graph

Daily Weather History Graph

Search for Another Location

Airport or City:

Trip Planner

Search our weather history database for the weather conditions in past years. The results will help you decide how hot, cold, wet, or windy it might be!

Date:

Astronomy

Apr. 16, 2014 Rise Set
Actual Time 5:51 AM EDT 7:21 PM EDT
Civil Twilight 5:21 AM EDT 7:51 PM EDT
Nautical Twilight 4:44 AM EDT 8:28 PM EDT
Astronomical Twilight 4:05 AM EDT 9:07 PM EDT
Moon 9:05 PM EDT (4/16) 6:34 AM EDT (4/16)
Length of Visible Light 14h 30m
Length of Day
13h 30m
Full, 98% of the Moon is Illuminated
Apr 16
Full
Apr 22
Last Quarter
Apr 29
New
May 6
First Quarter
May 14
Full

Hourly Weather History & Observations

Time (EDT) Temp. Windchill Dew Point Humidity Pressure Visibility Wind Dir Wind Speed Gust Speed Precip Events Conditions
12:15 AM 50.0 °F - 48.2 °F 94% 29.61 in 9.0 mi WSW 10.4 mph - 0.04 in   Overcast
12:35 AM 48.2 °F - 46.4 °F 93% 29.62 in 6.0 mi WNW 11.5 mph 29.9 mph 0.08 in   Overcast
12:55 AM 44.6 °F 39.7 °F 41.0 °F 87% 29.64 in 10.0 mi WNW 9.2 mph 16.1 mph 0.10 in   Overcast
1:15 AM 42.8 °F 37.5 °F 41.0 °F 93% 29.63 in 10.0 mi WNW 9.2 mph 20.7 mph N/A   Overcast
1:35 AM 42.8 °F 37.0 °F 39.2 °F 87% 29.64 in 9.0 mi NW 10.4 mph 17.3 mph N/A   Overcast
1:55 AM 41.0 °F 34.7 °F 39.2 °F 93% 29.65 in 10.0 mi WNW 10.4 mph 25.3 mph N/A   Overcast
2:15 AM 39.2 °F 31.2 °F 37.4 °F 93% 29.69 in 9.0 mi WNW 13.8 mph 24.2 mph N/A   Overcast
2:35 AM 39.2 °F 31.6 °F 35.6 °F 87% 29.70 in 5.0 mi NW 12.7 mph 23.0 mph 0.01 in   Overcast
2:55 AM 37.4 °F 30.3 °F 35.6 °F 93% 29.71 in 7.0 mi WNW 10.4 mph 17.3 mph 0.01 in   Overcast
3:15 AM 37.4 °F 30.8 °F 33.8 °F 87% 29.74 in 7.0 mi WNW 9.2 mph 17.3 mph 0.02 in   Overcast
3:35 AM 35.6 °F 28.6 °F 33.8 °F 93% 29.72 in 10.0 mi WNW 9.2 mph - 0.03 in   Overcast
3:55 AM 35.6 °F 28.0 °F 33.8 °F 93% 29.73 in 10.0 mi NW 10.4 mph 19.6 mph 0.03 in   Overcast
4:15 AM 35.6 °F 27.5 °F 32.0 °F 87% 29.76 in 10.0 mi WNW 11.5 mph 19.6 mph 0.01 in   Overcast
4:35 AM 33.8 °F 26.4 °F 30.2 °F 87% 29.79 in 9.0 mi WNW 9.2 mph - 0.03 in   Mostly Cloudy
4:55 AM 33.8 °F 24.3 °F 30.2 °F 87% 29.81 in 8.0 mi WNW 13.8 mph 20.7 mph 0.04 in   Overcast
5:15 AM 32.0 °F 23.0 °F 28.4 °F 87% 29.81 in 2.0 mi WNW 11.5 mph 26.5 mph 0.01 in   Overcast
5:35 AM 32.0 °F 21.6 °F 28.4 °F 87% 29.81 in 4.0 mi WNW 15.0 mph 25.3 mph 0.04 in   Overcast
5:55 AM 30.2 °F 19.3 °F 26.6 °F 86% 29.84 in 4.0 mi NW 15.0 mph 28.8 mph 0.07 in   Overcast
6:15 AM 28.4 °F 18.0 °F 26.6 °F 93% 29.86 in 0.5 mi NW 12.7 mph 20.7 mph 0.02 in   Overcast
6:35 AM 28.4 °F 19.1 °F 26.6 °F 93% 29.89 in 1.5 mi WNW 10.4 mph 17.3 mph 0.02 in   Overcast
6:55 AM 28.4 °F 17.0 °F 24.8 °F 86% 29.94 in 1.8 mi WNW 15.0 mph 21.9 mph 0.02 in   Overcast
7:15 AM 28.4 °F 19.7 °F 24.8 °F 86% 29.95 in 3.0 mi NNW 9.2 mph 16.1 mph N/A   Overcast
7:35 AM 28.4 °F 19.7 °F 24.8 °F 86% 29.98 in 10.0 mi WNW 9.2 mph - 0.01 in   Mostly Cloudy
7:55 AM 28.4 °F 19.1 °F 23.0 °F 80% 29.99 in 10.0 mi WNW 10.4 mph 17.3 mph 0.01 in   Overcast
8:15 AM 28.4 °F 18.5 °F 21.2 °F 74% 30.03 in 10.0 mi WNW 11.5 mph 18.4 mph N/A   Mostly Cloudy
8:35 AM 28.4 °F 19.7 °F 23.0 °F 80% 30.06 in 10.0 mi WNW 9.2 mph 17.3 mph N/A   Mostly Cloudy
8:55 AM 28.4 °F 17.5 °F 21.2 °F 74% 30.08 in 10.0 mi WNW 13.8 mph 19.6 mph N/A   Scattered Clouds
9:15 AM 30.2 °F 21.3 °F 19.4 °F 64% 30.09 in 10.0 mi WNW 10.4 mph 20.7 mph N/A   Partly Cloudy
9:35 AM 30.2 °F 19.8 °F 19.4 °F 64% 30.10 in 10.0 mi WNW 13.8 mph 20.7 mph N/A   Partly Cloudy
9:55 AM 30.2 °F 21.9 °F 19.4 °F 64% 30.13 in 10.0 mi NW 9.2 mph 17.3 mph N/A   Partly Cloudy
10:15 AM 32.0 °F 22.5 °F 21.2 °F 64% 30.15 in 10.0 mi WNW 12.7 mph 21.9 mph N/A   Clear
10:35 AM 32.0 °F 22.1 °F 19.4 °F 60% 30.15 in 10.0 mi WNW 13.8 mph 20.7 mph N/A   Clear
10:55 AM 33.8 °F 23.5 °F 17.6 °F 52% 30.16 in 10.0 mi WNW 16.1 mph 20.7 mph N/A   Clear
11:15 AM 33.8 °F 23.5 °F 19.4 °F 56% 30.17 in 10.0 mi WNW 16.1 mph 21.9 mph N/A   Clear
11:35 AM 33.8 °F 27.0 °F 17.6 °F 52% 30.18 in 10.0 mi NW 8.1 mph 21.9 mph N/A   Clear
11:55 AM 33.8 °F 25.3 °F 17.6 °F 52% 30.19 in 10.0 mi NW 11.5 mph 23.0 mph N/A   Clear
12:15 PM 35.6 °F 28.6 °F 19.4 °F 52% 30.21 in 10.0 mi WNW 9.2 mph 18.4 mph N/A   Partly Cloudy
12:35 PM 35.6 °F 25.5 °F 19.4 °F 52% 30.22 in 10.0 mi WNW 17.3 mph 26.5 mph N/A   Partly Cloudy
12:55 PM 35.6 °F 25.5 °F 19.4 °F 52% 30.23 in 10.0 mi WNW 17.3 mph 23.0 mph N/A   Scattered Clouds
1:15 PM 35.6 °F 29.2 °F 19.4 °F 52% 30.24 in 10.0 mi WNW 8.1 mph - N/A   Scattered Clouds
1:35 PM 37.4 °F 29.3 °F 17.6 °F 45% 30.26 in 10.0 mi WNW 12.7 mph 19.6 mph N/A   Partly Cloudy
1:55 PM 37.4 °F 31.4 °F 17.6 °F 45% 30.27 in 10.0 mi WNW 8.1 mph 16.1 mph N/A   Partly Cloudy
2:15 PM 37.4 °F 28.5 °F 17.6 °F 45% 30.28 in 10.0 mi WNW 15.0 mph 19.6 mph N/A   Clear
2:35 PM 37.4 °F 30.3 °F 19.4 °F 48% 30.29 in 10.0 mi WNW 10.4 mph 18.4 mph N/A   Clear
2:55 PM 39.2 °F 31.6 °F 17.6 °F 42% 30.30 in 10.0 mi WNW 12.7 mph 23.0 mph N/A   Clear
3:15 PM 39.2 °F 33.6 °F 15.8 °F 39% 30.31 in 10.0 mi NW 8.1 mph 25.3 mph N/A   Clear
3:35 PM 39.2 °F 33.0 °F 15.8 °F 39% 30.32 in 10.0 mi NW 9.2 mph 16.1 mph N/A   Clear
3:55 PM 39.2 °F 30.5 °F 15.8 °F 39% 30.33 in 10.0 mi WNW 16.1 mph 24.2 mph N/A   Clear
4:15 PM 39.2 °F 31.6 °F 14.0 °F 36% 30.35 in 10.0 mi WNW 12.7 mph 21.9 mph N/A   Clear
4:35 PM 39.2 °F 31.6 °F 14.0 °F 36% 30.36 in 10.0 mi WNW 12.7 mph 20.7 mph N/A   Clear
4:55 PM 39.2 °F 32.5 °F 14.0 °F 36% 30.38 in 10.0 mi WNW 10.4 mph 17.3 mph N/A   Clear
5:15 PM 39.2 °F 32.5 °F 14.0 °F 36% 30.39 in 10.0 mi WNW 10.4 mph 19.6 mph N/A   Clear
5:35 PM 37.4 °F 30.3 °F 12.2 °F 36% 30.40 in 10.0 mi NW 10.4 mph 19.6 mph N/A   Clear
5:55 PM 37.4 °F 29.3 °F 12.2 °F 36% 30.42 in 10.0 mi WNW 12.7 mph 18.4 mph N/A   Clear
6:15 PM 37.4 °F 31.4 °F 12.2 °F 36% 30.43 in 10.0 mi WNW 8.1 mph 17.3 mph N/A   Clear
6:35 PM 37.4 °F 31.4 °F 12.2 °F 36% 30.44 in 10.0 mi WNW 8.1 mph - N/A   Clear
6:55 PM 35.6 °F 29.2 °F 10.4 °F 35% 30.45 in 10.0 mi WNW 8.1 mph - N/A   Clear
7:15 PM 35.6 °F 29.9 °F 10.4 °F 35% 30.46 in 10.0 mi WNW 6.9 mph - N/A   Clear
7:55 PM 33.8 °F 29.6 °F 10.4 °F 38% 30.48 in 10.0 mi NW 4.6 mph - N/A   Clear
8:15 PM 33.8 °F 30.8 °F 12.2 °F 41% 30.51 in 10.0 mi NW 3.5 mph - N/A   Clear
8:35 PM 33.8 °F 27.7 °F 10.4 °F 38% 30.53 in 10.0 mi NNW 6.9 mph - N/A   Clear
8:55 PM 32.0 °F 25.6 °F 10.4 °F 41% 30.55 in 10.0 mi NNW 6.9 mph - N/A   Clear
9:15 PM 32.0 °F 26.4 °F 12.2 °F 44% 30.56 in 10.0 mi NNW 5.8 mph - N/A   Clear
9:35 PM 30.2 °F 21.9 °F 12.2 °F 47% 30.57 in 10.0 mi NNW 9.2 mph - N/A   Clear
9:55 PM 30.2 °F 22.6 °F 10.4 °F 44% 30.58 in 10.0 mi NNW 8.1 mph - N/A   Clear
10:15 PM 30.2 °F 22.6 °F 12.2 °F 47% 30.59 in 10.0 mi NNW 8.1 mph - N/A   Clear
10:35 PM 30.2 °F 25.4 °F 12.2 °F 47% 30.60 in 10.0 mi NNW 4.6 mph - N/A   Clear
10:55 PM 28.4 °F 23.3 °F 12.2 °F 51% 30.62 in 10.0 mi North 4.6 mph - N/A   Clear
11:15 PM 28.4 °F 24.6 °F 12.2 °F 51% 30.63 in 10.0 mi NNW 3.5 mph - N/A   Clear
11:35 PM 28.4 °F 22.2 °F 12.2 °F 51% 30.64 in 10.0 mi North 5.8 mph - N/A   Clear
11:55 PM 28.4 °F 21.2 °F 12.2 °F 51% 30.64 in 10.0 mi North 6.9 mph - N/A   Clear